WX8TJG-WX Weather Reports


time (UTC)temp
C
wind
direction
speed
KPH
gust
KPH
rain 1hr
cm
rain 24hr
cm
rain mn
cm
humidity
%
barometer
mb
20260510220018 14 313 6.4 9.7 0.00 0.33 0.03 51 1018.8
20260510215015 15 318 4.8 9.7 0.00 0.33 0.03 52 1018.7
20260510214016 15 323 6.4 11.3 0.00 0.33 0.03 51 1018.5
20260510213016 16 329 6.4 11.3 0.00 0.33 0.03 49 1018.2
20260510212016 16 252 4.8 8.0 0.00 0.33 0.03 47 1018.0
20260510211016 15 324 3.2 9.7 0.00 0.33 0.03 50 1018.0
20260510210017 15 341 3.2 6.4 0.00 0.33 0.03 52 1018.2
20260510205016 15 290 8.0 12.9 0.00 0.33 0.03 51 1018.1
20260510204017 15 307 4.8 9.7 0.00 0.33 0.03 51 1018.2
20260510203017 16 328 6.4 17.7 0.00 0.33 0.03 50 1018.0
20260510202017 15 34 3.2 8.0 0.00 0.33 0.03 51 1018.2
20260510201037 15 353 4.8 6.4 0.00 0.33 0.03 49 1018.3
20260510200017 15 358 6.4 16.1 0.00 0.33 0.03 49 1018.4
20260510195018 15 316 8.0 14.5 0.00 0.33 0.03 49 1018.4
20260510194018 15 52 3.2 11.3 0.00 0.33 0.03 49 1018.4
20260510193018 15 319 4.8 14.5 0.00 0.33 0.03 51 1018.5
20260510192018 15 352 4.8 11.3 0.00 0.33 0.03 50 1018.5
20260510191016 15 343 4.8 11.3 0.00 0.33 0.03 50 1018.4
20260510190035 15 289 8.0 14.5 0.00 0.33 0.03 50 1018.2
20260510185016 15 2 4.8 11.3 0.00 0.33 0.03 52 1018.2
20260510184036 15 23 4.8 16.1 0.00 0.33 0.03 51 1018.3
20260510183016 15 332 8.0 20.9 0.00 0.33 0.03 51 1018.3
20260510182056 15 323 8.0 12.9 0.00 0.33 0.03 52 1018.2
20260510181017 15 328 8.0 16.1 0.00 0.33 0.03 54 1018.1
20260510180016 15 349 6.4 12.9 0.00 0.33 0.03 52 1017.9
20260510175037 14 329 8.0 12.9 0.00 0.33 0.03 53 1017.7
20260510174017 14 314 4.8 12.9 0.00 0.33 0.03 53 1017.9
20260510173017 14 349 6.4 14.5 0.00 0.33 0.03 55 1018.0
20260510172017 14 29 6.4 16.1 0.00 0.33 0.03 56 1018.1
20260510171018 14 350 6.4 12.9 0.00 0.33 0.03 55 1018.1
20260510170018 14 42 9.7 14.5 0.00 0.33 0.03 56 1018.3
20260510165038 13 21 6.4 12.9 0.00 0.33 0.03 57 1018.3
20260510164018 13 19 6.4 12.9 0.00 0.33 0.03 58 1018.2
20260510163038 13 23 6.4 14.5 0.00 0.33 0.03 58 1018.1
20260510162100 13 24 6.4 14.5 0.00 0.33 0.03 61 1018.1
20260510161018 13 18 8.0 16.1 0.00 0.33 0.03 61 1018.0
20260510160016 13 26 9.7 19.3 0.00 0.33 0.03 61 1018.0
20260510155016 12 29 8.0 16.1 0.00 0.33 0.03 61 1017.9
20260510154016 12 14 9.7 17.7 0.00 0.33 0.03 62 1017.8
20260510153038 12 17 8.0 16.1 0.00 0.33 0.03 65 1017.6
20260510152016 12 21 11.3 17.7 0.00 0.33 0.03 66 1017.5
20260510151017 12 51 8.0 14.5 0.00 0.33 0.03 67 1017.3
20260510150037 12 39 8.0 14.5 0.00 0.33 0.03 67 1017.2
20260510145017 12 28 6.4 12.9 0.00 0.33 0.03 69 1017.2
20260510144017 11 19 9.7 16.1 0.00 0.33 0.03 70 1017.0
20260510143017 11 33 11.3 17.7 0.00 0.33 0.03 70 1016.6
20260510142017 11 34 11.3 22.5 0.00 0.33 0.03 71 1016.6
20260510141017 11 35 8.0 14.5 0.00 0.33 0.03 73 1016.4
20260510140018 11 40 9.7 19.3 0.00 0.33 0.03 74 1016.3
20260510135018 10 36 11.3 19.3 0.00 0.33 0.03 75 1016.3
20260510134058 10 17 8.0 14.5 0.00 0.33 0.03 78 1016.4
20260510133018 10 19 8.0 16.1 0.00 0.33 0.03 78 1016.3
20260510132018 10 27 8.0 11.3 0.00 0.33 0.03 78 1016.3
20260510131015 10 13 6.4 12.9 0.00 0.33 0.03 78 1016.2
20260510130015 10 24 6.4 12.9 0.00 0.33 0.03 78 1016.1
20260510125016 10 11 4.8 11.3 0.00 0.33 0.03 77 1016.0
20260510124016 10 8 4.8 9.7 0.00 0.33 0.03 77 1015.9
20260510123016 10 10 4.8 9.7 0.00 0.33 0.03 77 1015.6
20260510122016 10 16 4.8 12.9 0.00 0.33 0.03 76 1015.4
20260510121017 10 7 3.2 9.7 0.00 0.33 0.03 77 1015.2
20260510120017 9 358 1.6 4.8 0.00 0.33 0.03 77 1015.3
20260510115017 9 20 3.2 6.4 0.00 0.33 0.03 77 1015.0
20260510114037 9 15 1.6 3.2 0.00 0.33 0.03 77 1014.6
20260510113037 9 8 3.2 4.8 0.00 0.33 0.03 78 1014.4
20260510112018 9 21 1.6 4.8 0.00 0.33 0.03 77 1014.4
20260510111018 9 340 3.2 6.4 0.00 0.33 0.03 78 1014.1
20260510110018 9 18 3.2 6.4 0.00 0.33 0.03 78 1013.7
20260510105038 9 0 1.6 4.8 0.00 0.33 0.03 77 1013.8
20260510104018 9 347 1.6 4.8 0.00 0.33 0.03 77 1013.7
20260510103015 9 12 3.2 6.4 0.00 0.33 0.03 76 1013.4
20260510102016 9 4 3.2 6.4 0.00 0.33 0.03 76 1013.3
20260510101017 9 12 4.8 8.0 0.00 0.33 0.03 76 1013.0
20260510100036 9 0 3.2 8.0 0.00 0.33 0.03 77 1012.8
20260510095016 9 10 4.8 8.0 0.00 0.33 0.03 77 1012.7
20260510094016 9 11 4.8 8.0 0.00 0.33 0.03 78 1012.5
20260510093016 9 20 4.8 9.7 0.00 0.33 0.03 78 1012.6
20260510092017 9 6 3.2 6.4 0.00 0.33 0.03 78 1012.4
20260510091016 9 4 4.8 8.0 0.00 0.33 0.03 79 1012.4
20260510090037 9 360 4.8 6.4 0.00 0.33 0.03 79 1012.2
20260510085017 10 347 3.2 6.4 0.00 0.33 0.03 80 1012.2
20260510084017 10 351 3.2 6.4 0.00 0.33 0.03 80 1012.1
20260510083017 10 338 3.2 6.4 0.00 0.33 0.03 80 1012.0
20260510082021 10 0 3.2 6.4 0.00 0.33 0.03 78 1011.8
20260510081020 11 357 4.8 8.0 0.00 0.33 0.03 78 1011.7
20260510080038 11 17 6.4 9.7 0.00 0.33 0.03 77 1011.5
20260510075038 11 24 6.4 12.9 0.00 0.33 0.03 77 1011.4
20260510074018 11 24 6.4 12.9 0.00 0.33 0.03 77 1011.2
20260510073018 11 18 6.4 11.3 0.00 0.33 0.03 78 1011.2
20260510072015 12 10 6.4 11.3 0.00 0.33 0.03 81 1011.2
20260510071016 12 11 4.8 9.7 0.00 0.33 0.03 83 1011.2
20260510070036 12 347 4.8 11.3 0.00 0.33 0.03 83 1011.0
20260510065020 12 331 4.8 11.3 0.00 0.33 0.03 83 1010.8
20260510064016 13 332 6.4 11.3 0.00 0.33 0.03 84 1010.8
20260510063016 13 310 3.2 4.8 0.00 0.33 0.03 88 1010.7
20260510062016 13 321 4.8 6.4 0.00 0.33 0.03 89 1010.6
20260510061017 13 318 4.8 9.7 0.00 0.33 0.03 89 1010.4
20260510060017 12 312 3.2 8.0 0.00 0.33 0.03 91 1010.4
20260510055017 12 353 1.6 4.8 0.00 0.33 0.03 92 1010.4
20260510054037 11 293 1.6 8.0 0.00 0.33 0.03 93 1010.3
20260510053017 11 338 3.2 6.4 0.00 0.33 0.03 94 1010.0
20260510052017 11 334 1.6 6.4 0.00 0.33 0.03 92 1009.8
20260510051018 12 10 1.6 4.8 0.00 0.36 0.03 91 1009.7
20260510050018 12 162 0.0 3.2 0.03 0.36 0.03 90 1009.6
20260510045018 12 332 0.0 3.2 0.03 0.38 0.03 89 1009.5
20260510044018 13 172 3.2 8.0 0.15 0.38 0.03 89 1009.4
20260510043015 13 178 3.2 4.8 0.30 0.38 0.03 88 1009.4
20260510042016 13 199 1.6 4.8 0.30 0.38 0.03 88 1009.5
20260510041015 14 213 4.8 11.3 0.28 0.46 0.03 87 1009.4
20260510040040 14 209 8.0 19.3 0.28 0.51 0.00 87 1009.5
20260510035016 13 233 6.4 14.5 0.28 0.61 0.56 92 1009.7
20260510034016 12 232 3.2 9.7 0.13 0.51 0.43 95 1009.4
20260510033017 12 139 0.0 3.2 0.00 0.36 0.28 95 1008.8
20260510032057 12 142 0.0 3.2 0.00 0.36 0.28 95 1008.9
20260510031037 12 141 1.6 4.8 0.00 0.38 0.28 94 1008.9
20260510030037 12 136 0.0 3.2 0.00 0.38 0.28 94 1009.0
20260510025017 12 147 3.2 4.8 0.00 0.38 0.28 94 1008.9
20260510024017 12 181 0.0 1.6 0.00 0.41 0.28 93 1009.0
20260510023017 12 173 1.6 4.8 0.00 0.43 0.28 92 1008.9
20260510022017 12 49 0.0 1.6 0.00 0.43 0.28 92 1008.9
20260510021019 13 184 1.6 3.2 0.03 0.43 0.28 91 1008.8
20260510020018 13 353 1.6 3.2 0.03 0.43 0.28 90 1008.6
20260510015018 13 12 0.0 0.0 0.03 0.43 0.28 89 1008.3
20260510014018 13 0.0 0.0 0.03 0.43 0.28 88 1008.1
20260510013018 13 187 1.6 3.2 0.03 0.43 0.28 87 1008.0
20260510012041 13 149 0.0 3.2 0.00 0.43 0.28 86 1007.9
20260510011016 13 172 0.0 3.2 0.00 0.43 0.25 87 1007.9
20260510010016 13 150 1.6 4.8 0.00 0.43 0.25 86 1007.9
20260510005036 13 145 1.6 3.2 0.00 0.43 0.25 84 1007.7
20260510004016 14 338 0.0 3.2 0.00 0.43 0.25 82 1007.7
20260510003017 14 54 0.0 3.2 0.00 0.43 0.25 81 1007.7
20260510002017 15 29 1.6 4.8 0.00 0.43 0.25 80 1007.7
20260510001017 15 2 3.2 6.4 0.00 0.43 0.25 78 1007.6
20260510000017 15 325 8.0 14.5 0.00 0.43 0.25 78 1007.8
20260509235017 16 307 9.7 19.3 0.00 0.43 0.25 75 1007.9
20260509234017 19 307 14.5 22.5 0.00 0.43 0.25 63 1007.4
20260509233018 20 257 8.0 14.5 0.00 0.43 0.25 60 1006.7
20260509232017 20 240 6.4 16.1 0.00 0.43 0.25 60 1006.4
20260509231018 20 217 8.0 17.7 0.00 0.43 0.25 59 1006.4
20260509230018 20 228 6.4 14.5 0.00 0.43 0.25 58 1006.4
20260509225018 20 224 8.0 20.9 0.00 0.43 0.25 58 1006.3
20260509224038 20 215 9.7 20.9 0.00 0.43 0.25 58 1006.3
20260509223019 21 210 8.0 14.5 0.00 0.46 0.25 60 1006.2
20260509222016 21 214 9.7 17.7 0.00 0.46 0.25 58 1006.1
20260509221037 21 203 9.7 19.3 0.00 0.46 0.25 59 1006.1